| time (UTC) | temp F | wind direction | speed MPH | gust MPH | rain 1hr in | rain 24hr in | rain mn in | humidity % | barometer mb |
| 20260507022216 | 61 | 0 | 2.0 | 2.0 | 0.00 | 0.00 | 0.00 | 66 | 1011.2 |
| 20260507021217 | 61 | 0 | 2.0 | 3.0 | 0.00 | 0.00 | 0.00 | 66 | 1011.3 |
| 20260507020216 | 61 | 0.0 | 1.0 | 0.00 | 0.00 | 0.00 | 65 | 1011.3 | |
| 20260507015217 | 61 | 270 | 2.0 | 3.0 | 0.00 | 0.00 | 0.00 | 63 | 1011.3 |
| 20260507014217 | 61 | 270 | 1.0 | 2.0 | 0.00 | 0.00 | 0.00 | 63 | 1011.4 |
| 20260507013216 | 62 | 0.0 | 1.0 | 0.00 | 0.00 | 0.00 | 64 | 1011.4 | |
| 20260507012216 | 62 | 0.0 | 0.0 | 0.00 | 0.00 | 0.00 | 67 | 1011.4 | |
| 20260507011216 | 63 | 0.0 | 1.0 | 0.00 | 0.00 | 0.00 | 68 | 1011.6 | |
| 20260507010216 | 63 | 0.0 | 0.0 | 0.00 | 0.00 | 0.00 | 67 | 1011.6 | |
| 20260507005238 | 63 | 270 | 2.0 | 2.0 | 0.00 | 0.00 | 0.00 | 67 | 1011.6 |
| 20260507004217 | 63 | 270 | 1.0 | 1.0 | 0.00 | 0.00 | 0.00 | 66 | 1011.6 |
| 20260507003217 | 62 | 23 | 2.0 | 3.0 | 0.00 | 0.00 | 0.00 | 64 | 1011.7 |
| 20260507002216 | 62 | 0.0 | 1.0 | 0.00 | 0.00 | 0.00 | 64 | 1011.8 | |
| 20260507001216 | 62 | 23 | 2.0 | 4.0 | 0.00 | 0.00 | 0.00 | 64 | 1011.8 |
| 20260507000219 | 63 | 45 | 4.0 | 6.0 | 0.00 | 0.00 | 0.00 | 64 | 1011.9 |
| 20260506235237 | 63 | 68 | 5.0 | 8.0 | 0.00 | 0.00 | 0.00 | 65 | 1011.9 |
| 20260506234215 | 64 | 90 | 4.0 | 6.0 | 0.00 | 0.00 | 0.00 | 66 | 1012.1 |
| 20260506233217 | 64 | 113 | 2.0 | 3.0 | 0.00 | 0.00 | 0.00 | 64 | 1012.3 |
| 20260506232237 | 64 | 158 | 1.0 | 2.0 | 0.00 | 0.00 | 0.00 | 62 | 1012.3 |
| 20260506231216 | 64 | 135 | 1.0 | 2.0 | 0.00 | 0.00 | 0.00 | 61 | 1012.2 |
| 20260506230236 | 64 | 135 | 3.0 | 6.0 | 0.00 | 0.00 | 0.00 | 59 | 1012.3 |
| 20260506225216 | 64 | 113 | 3.0 | 7.0 | 0.00 | 0.00 | 0.00 | 57 | 1012.2 |
| 20260506224216 | 64 | 113 | 2.0 | 6.0 | 0.00 | 0.00 | 0.00 | 55 | 1012.3 |
| 20260506223215 | 64 | 158 | 5.0 | 12.0 | 0.00 | 0.00 | 0.00 | 54 | 1012.2 |
| 20260506222216 | 64 | 90 | 4.0 | 6.0 | 0.00 | 0.00 | 0.00 | 54 | 1012.2 |
| 20260506221216 | 64 | 135 | 4.0 | 7.0 | 0.00 | 0.00 | 0.00 | 56 | 1012.1 |
| 20260506220217 | 64 | 135 | 1.0 | 2.0 | 0.00 | 0.00 | 0.00 | 60 | 1012.1 |
| 20260506215216 | 64 | 113 | 1.0 | 4.0 | 0.00 | 0.00 | 0.00 | 63 | 1012.1 |
| 20260506214216 | 63 | 158 | 4.0 | 7.0 | 0.00 | 0.00 | 0.00 | 66 | 1012.1 |
| 20260506213238 | 64 | 135 | 2.0 | 3.0 | 0.00 | 0.00 | 0.00 | 75 | 1012.0 |
| 20260506212217 | 64 | 135 | 4.0 | 10.0 | 0.00 | 0.00 | 0.00 | 77 | 1012.1 |
| 20260506211217 | 64 | 113 | 4.0 | 9.0 | 0.00 | 0.00 | 0.00 | 78 | 1012.0 |
| 20260506210217 | 64 | 158 | 3.0 | 6.0 | 0.00 | 0.00 | 0.00 | 77 | 1011.8 |
| 20260506205216 | 65 | 90 | 4.0 | 8.0 | 0.00 | 0.00 | 0.00 | 77 | 1011.9 |
| 20260506204216 | 65 | 113 | 3.0 | 11.0 | 0.00 | 0.00 | 0.00 | 76 | 1011.8 |
| 20260506203216 | 64 | 158 | 5.0 | 9.0 | 0.00 | 0.00 | 0.00 | 75 | 1011.6 |
| 20260506202258 | 65 | 158 | 8.0 | 13.0 | 0.00 | 0.00 | 0.00 | 77 | 1011.5 |
| 20260506201236 | 65 | 135 | 5.0 | 8.0 | 0.00 | 0.00 | 0.00 | 77 | 1011.4 |
| 20260506200237 | 65 | 90 | 2.0 | 5.0 | 0.00 | 0.00 | 0.00 | 77 | 1011.2 |
| 20260506195216 | 65 | 113 | 1.0 | 3.0 | 0.00 | 0.00 | 0.00 | 77 | 1011.0 |
| 20260506194236 | 66 | 135 | 4.0 | 8.0 | 0.00 | 0.00 | 0.00 | 77 | 1011.0 |
| 20260506193216 | 66 | 113 | 7.0 | 13.0 | 0.00 | 0.00 | 0.00 | 75 | 1010.7 |
| 20260506192216 | 67 | 113 | 6.0 | 10.0 | 0.00 | 0.00 | 0.00 | 73 | 1010.7 |
| 20260506191216 | 68 | 135 | 3.0 | 8.0 | 0.00 | 0.00 | 0.00 | 69 | 1010.5 |
| 20260506190216 | 68 | 135 | 3.0 | 6.0 | 0.00 | 0.00 | 0.00 | 64 | 1010.5 |
| 20260506185216 | 69 | 113 | 6.0 | 11.0 | 0.00 | 0.00 | 0.00 | 62 | 1010.2 |
| 20260506184236 | 70 | 90 | 4.0 | 9.0 | 0.00 | 0.00 | 0.00 | 59 | 1010.1 |
| 20260506183216 | 70 | 135 | 4.0 | 6.0 | 0.00 | 0.00 | 0.00 | 59 | 1010.0 |
| 20260506182237 | 71 | 113 | 3.0 | 6.0 | 0.00 | 0.00 | 0.00 | 59 | 1009.9 |
| 20260506181216 | 72 | 90 | 4.0 | 9.0 | 0.00 | 0.00 | 0.00 | 56 | 1010.0 |
| 20260506180257 | 72 | 90 | 2.0 | 4.0 | 0.00 | 0.00 | 0.00 | 55 | 1010.1 |
| 20260506175216 | 72 | 90 | 5.0 | 9.0 | 0.00 | 0.00 | 0.00 | 55 | 1010.2 |
| 20260506174236 | 72 | 135 | 3.0 | 5.0 | 0.00 | 0.00 | 0.00 | 57 | 1010.3 |
| 20260506173216 | 72 | 90 | 1.0 | 4.0 | 0.00 | 0.00 | 0.00 | 59 | 1010.2 |
| 20260506172236 | 72 | 113 | 1.0 | 4.0 | 0.00 | 0.00 | 0.00 | 59 | 1010.4 |
| 20260506171216 | 72 | 90 | 2.0 | 6.0 | 0.00 | 0.00 | 0.00 | 58 | 1010.5 |
| 20260506170216 | 73 | 113 | 3.0 | 5.0 | 0.00 | 0.00 | 0.00 | 56 | 1010.5 |
| 20260506165216 | 73 | 90 | 4.0 | 9.0 | 0.00 | 0.00 | 0.00 | 53 | 1010.5 |
| 20260506164216 | 74 | 135 | 1.0 | 2.0 | 0.00 | 0.00 | 0.00 | 55 | 1010.5 |
| 20260506163216 | 74 | 90 | 5.0 | 8.0 | 0.00 | 0.00 | 0.00 | 55 | 1010.3 |
| 20260506162216 | 75 | 158 | 2.0 | 4.0 | 0.00 | 0.00 | 0.00 | 52 | 1010.5 |
| 20260506161216 | 76 | 90 | 3.0 | 7.0 | 0.00 | 0.00 | 0.00 | 51 | 1010.5 |
| 20260506160217 | 76 | 113 | 3.0 | 6.0 | 0.00 | 0.00 | 0.00 | 50 | 1010.6 |
| 20260506155216 | 76 | 90 | 6.0 | 9.0 | 0.00 | 0.00 | 0.00 | 49 | 1010.5 |
| 20260506154216 | 77 | 113 | 2.0 | 6.0 | 0.00 | 0.00 | 0.00 | 38 | 1010.5 |
| 20260506153215 | 77 | 158 | 3.0 | 5.0 | 0.00 | 0.00 | 0.00 | 45 | 1010.6 |
| 20260506152217 | 77 | 45 | 3.0 | 7.0 | 0.00 | 0.00 | 0.00 | 43 | 1010.6 |
| 20260506151236 | 77 | 180 | 1.0 | 3.0 | 0.00 | 0.00 | 0.00 | 40 | 1010.5 |
| 20260506150219 | 77 | 135 | 1.0 | 3.0 | 0.00 | 0.00 | 0.00 | 38 | 1010.8 |
| 20260506145216 | 78 | 180 | 4.0 | 10.0 | 0.00 | 0.00 | 0.00 | 38 | 1010.9 |
| 20260506144216 | 79 | 158 | 4.0 | 7.0 | 0.00 | 0.00 | 0.00 | 33 | 1011.2 |
| 20260506143235 | 79 | 158 | 5.0 | 8.0 | 0.00 | 0.00 | 0.00 | 30 | 1011.3 |
| 20260506142237 | 79 | 158 | 4.0 | 7.0 | 0.00 | 0.00 | 0.00 | 28 | 1011.3 |
| 20260506141215 | 79 | 180 | 5.0 | 9.0 | 0.00 | 0.00 | 0.00 | 28 | 1011.3 |
| 20260506140236 | 79 | 158 | 6.0 | 9.0 | 0.00 | 0.00 | 0.00 | 28 | 1011.4 |
| 20260506135215 | 80 | 90 | 3.0 | 8.0 | 0.00 | 0.00 | 0.00 | 28 | 1011.4 |
| 20260506134218 | 79 | 135 | 2.0 | 6.0 | 0.00 | 0.00 | 0.00 | 30 | 1011.5 |
| 20260506133217 | 79 | 113 | 5.0 | 8.0 | 0.00 | 0.00 | 0.00 | 31 | 1011.3 |
| 20260506132217 | 78 | 135 | 3.0 | 7.0 | 0.00 | 0.00 | 0.00 | 31 | 1011.5 |
| 20260506131217 | 78 | 90 | 3.0 | 7.0 | 0.00 | 0.00 | 0.00 | 31 | 1011.5 |
| 20260506130217 | 77 | 180 | 6.0 | 11.0 | 0.00 | 0.00 | 0.00 | 32 | 1011.5 |
| 20260506125237 | 77 | 158 | 8.0 | 13.0 | 0.00 | 0.00 | 0.00 | 32 | 1011.6 |
| 20260506124217 | 77 | 135 | 4.0 | 6.0 | 0.00 | 0.00 | 0.00 | 33 | 1011.6 |
| 20260506123217 | 77 | 113 | 3.0 | 5.0 | 0.00 | 0.00 | 0.00 | 32 | 1011.6 |
| 20260506122217 | 78 | 158 | 5.0 | 13.0 | 0.00 | 0.00 | 0.00 | 33 | 1011.7 |
| 20260506121300 | 77 | 158 | 2.0 | 5.0 | 0.00 | 0.00 | 0.00 | 34 | 1011.8 |
| 20260506120218 | 76 | 68 | 3.0 | 10.0 | 0.00 | 0.00 | 0.00 | 34 | 1011.8 |
| 20260506115217 | 76 | 180 | 7.0 | 11.0 | 0.00 | 0.00 | 0.00 | 35 | 1011.9 |
| 20260506114217 | 76 | 158 | 3.0 | 5.0 | 0.00 | 0.00 | 0.00 | 38 | 1011.8 |
| 20260506113217 | 75 | 113 | 3.0 | 8.0 | 0.00 | 0.00 | 0.00 | 37 | 1011.8 |
| 20260506112217 | 75 | 90 | 3.0 | 7.0 | 0.00 | 0.00 | 0.00 | 39 | 1011.9 |
| 20260506111218 | 74 | 135 | 3.0 | 9.0 | 0.00 | 0.00 | 0.00 | 40 | 1011.8 |
| 20260506110217 | 74 | 90 | 4.0 | 8.0 | 0.00 | 0.00 | 0.00 | 41 | 1011.9 |
| 20260506105217 | 74 | 158 | 3.0 | 5.0 | 0.00 | 0.00 | 0.00 | 43 | 1011.8 |
| 20260506104217 | 73 | 158 | 8.0 | 11.0 | 0.00 | 0.00 | 0.00 | 44 | 1011.9 |
| 20260506103217 | 73 | 180 | 7.0 | 10.0 | 0.00 | 0.00 | 0.00 | 45 | 1012.0 |
| 20260506102218 | 73 | 180 | 3.0 | 5.0 | 0.00 | 0.00 | 0.00 | 45 | 1012.0 |
| 20260506101217 | 75 | 158 | 9.0 | 12.0 | 0.00 | 0.00 | 0.00 | 43 | 1011.9 |
| 20260506100217 | 75 | 113 | 2.0 | 5.0 | 0.00 | 0.00 | 0.00 | 42 | 1011.8 |
| 20260506095238 | 74 | 113 | 1.0 | 2.0 | 0.00 | 0.00 | 0.00 | 35 | 1011.8 |
| 20260506094217 | 73 | 225 | 1.0 | 2.0 | 0.00 | 0.00 | 0.00 | 38 | 1011.9 |
| 20260506093237 | 72 | 338 | 2.0 | 3.0 | 0.00 | 0.00 | 0.00 | 38 | 1011.9 |
| 20260506092218 | 71 | 248 | 1.0 | 2.0 | 0.00 | 0.00 | 0.00 | 42 | 1011.9 |
| 20260506091217 | 70 | 270 | 3.0 | 6.0 | 0.00 | 0.00 | 0.00 | 42 | 1011.9 |
| 20260506090216 | 69 | 270 | 3.0 | 5.0 | 0.00 | 0.00 | 0.00 | 44 | 1012.0 |
| 20260506085217 | 69 | 225 | 5.0 | 7.0 | 0.00 | 0.00 | 0.00 | 46 | 1011.8 |
| 20260506084236 | 68 | 225 | 6.0 | 9.0 | 0.00 | 0.00 | 0.00 | 46 | 1011.9 |
| 20260506083217 | 68 | 225 | 9.0 | 11.0 | 0.00 | 0.00 | 0.00 | 47 | 1011.9 |
| 20260506082217 | 67 | 270 | 5.0 | 8.0 | 0.00 | 0.00 | 0.00 | 48 | 1011.9 |
| 20260506081217 | 67 | 248 | 7.0 | 10.0 | 0.00 | 0.00 | 0.00 | 50 | 1011.8 |
| 20260506080218 | 66 | 270 | 5.0 | 10.0 | 0.00 | 0.00 | 0.00 | 51 | 1011.8 |
| 20260506073217 | 64 | 248 | 5.0 | 11.0 | 0.00 | 0.00 | 0.00 | 55 | 1011.7 |
| 20260506072238 | 63 | 270 | 5.0 | 7.0 | 0.00 | 0.00 | 0.00 | 56 | 1011.6 |
| 20260506071216 | 63 | 270 | 5.0 | 9.0 | 0.00 | 0.00 | 0.00 | 57 | 1011.6 |
| 20260506070218 | 63 | 270 | 6.0 | 10.0 | 0.00 | 0.00 | 0.00 | 58 | 1011.5 |
| 20260506062217 | 61 | 248 | 8.0 | 14.0 | 0.00 | 0.00 | 0.00 | 60 | 1011.7 |
| 20260506061218 | 60 | 248 | 7.0 | 10.0 | 0.00 | 0.00 | 0.00 | 61 | 1011.7 |
| 20260506060216 | 60 | 270 | 5.0 | 10.0 | 0.00 | 0.00 | 0.00 | 61 | 1011.6 |
| 20260506051216 | 60 | 248 | 7.0 | 10.0 | 0.00 | 0.00 | 0.00 | 61 | 1011.4 |
| 20260506050216 | 60 | 270 | 11.0 | 16.0 | 0.00 | 0.00 | 0.00 | 61 | 1011.2 |
| 20260506044239 | 60 | 248 | 8.0 | 11.0 | 0.00 | 0.00 | 0.00 | 61 | 1011.4 |
| 20260506043217 | 60 | 248 | 6.0 | 9.0 | 0.00 | 0.00 | 0.00 | 61 | 1011.2 |
| 20260506042216 | 60 | 270 | 5.0 | 8.0 | 0.00 | 0.00 | 0.00 | 61 | 1011.2 |
| 20260506041216 | 61 | 270 | 10.0 | 15.0 | 0.00 | 0.00 | 0.00 | 61 | 1011.5 |
| 20260506040237 | 61 | 270 | 10.0 | 15.0 | 0.00 | 0.00 | 0.00 | 60 | 1011.6 |
| 20260506035216 | 61 | 248 | 8.0 | 12.0 | 0.00 | 0.00 | 0.00 | 60 | 1011.4 |
| 20260506034216 | 61 | 248 | 9.0 | 15.0 | 0.00 | 0.00 | 0.00 | 60 | 1011.6 |
| 20260506033216 | 61 | 270 | 7.0 | 9.0 | 0.00 | 0.00 | 0.00 | 59 | 1011.6 |
| 20260506032216 | 62 | 270 | 8.0 | 12.0 | 0.00 | 0.00 | 0.00 | 59 | 1011.6 |
| 20260506031216 | 62 | 248 | 9.0 | 12.0 | 0.00 | 0.00 | 0.00 | 58 | 1011.7 |
| 20260506030216 | 62 | 248 | 9.0 | 12.0 | 0.00 | 0.00 | 0.00 | 57 | 1011.7 |
| 20260506025216 | 62 | 270 | 9.0 | 11.0 | 0.00 | 0.00 | 0.00 | 57 | 1011.6 |
| 20260506024216 | 62 | 248 | 6.0 | 10.0 | 0.00 | 0.00 | 0.00 | 57 | 1011.7 |
| 20260506023217 | 63 | 270 | 10.0 | 14.0 | 0.00 | 0.00 | 0.00 | 57 | 1011.8 |